• En España
  • Catálogo de los países
  • Para 7 días
  • Temperatura del agua
  • Satélites
  • Mapas de tiempo
  • Reproductores
  • user-avatar
    Entrar

    Situación metereológica por horas en Meppel

    Hoy, 2 Mayo, Lunes

    hora temperatura Precipitaciones Viento Presión Humedad
    00:00 +5°C° 0 mm 2 m/s 770 mmHg 75%
    01:00 +5°C° 0 mm 2 m/s 770 mmHg 77%
    02:00 +4°C° 0 mm 2 m/s 770 mmHg 78%
    03:00 +4°C° 0 mm 2 m/s 769 mmHg 80%
    04:00 +6°C° 0 mm 2 m/s 769 mmHg 76%
    05:00 +7°C° 0 mm 2 m/s 769 mmHg 73%
    06:00 +9°C° 0 mm 3 m/s 769 mmHg 69%
    07:00 +10°C° 0 mm 3 m/s 768 mmHg 63%
    08:00 +12°C° 0 mm 4 m/s 768 mmHg 56%
    09:00 +14°C° 0 mm 4 m/s 768 mmHg 50%
    10:00 +15°C° 0 mm 5 m/s 767 mmHg 47%
    11:00 +16°C° 0 mm 5 m/s 767 mmHg 45%
    12:00 +17°C° 0 mm 6 m/s 767 mmHg 43%
    13:00 +17°C° 0 mm 6 m/s 766 mmHg 43%
    14:00 +19°C° 0 mm 6 m/s 766 mmHg 43%
    15:00 +19°C° 0 mm 6 m/s 765 mmHg 43%
    16:00 +17°C° 0 mm 5 m/s 765 mmHg 50%
    17:00 +17°C° 0 mm 4 m/s 764 mmHg 56%
    18:00 +15°C° 0 mm 4 m/s 764 mmHg 63%
    19:00 +13°C° 0,2 mm 4 m/s 764 mmHg 69%
    20:00 +12°C° 0,2 mm 4 m/s 764 mmHg 75%
    21:00 +11°C° 0,2 mm 4 m/s 763 mmHg 82%
    22:00 +11°C° 0,3 mm 4 m/s 763 mmHg 85%
    23:00 +10°C° 0,3 mm 5 m/s 763 mmHg 89%

    Mañana, 3 Mayo, Martes

    hora temperatura Precipitaciones Viento Presión Humedad
    00:00 +10°C° 0,3 mm 5 m/s 763 mmHg 92%
    01:00 +9°C° 0,4 mm 5 m/s 763 mmHg 92%
    02:00 +8°C° 0,4 mm 5 m/s 763 mmHg 92%
    03:00 +8°C° 0,4 mm 4 m/s 763 mmHg 92%
    04:00 +8°C° 0,2 mm 5 m/s 763 mmHg 89%
    05:00 +8°C° 0,2 mm 5 m/s 764 mmHg 87%
    06:00 +8°C° 0,2 mm 5 m/s 764 mmHg 84%
    07:00 +9°C° 0 mm 6 m/s 765 mmHg 76%
    08:00 +10°C° 0 mm 6 m/s 765 mmHg 68%
    09:00 +11°C° 0 mm 7 m/s 766 mmHg 61%
    10:00 +12°C° 0 mm 7 m/s 766 mmHg 57%
    11:00 +12°C° 0 mm 7 m/s 767 mmHg 53%
    12:00 +12°C° 0 mm 7 m/s 767 mmHg 49%
    13:00 +12°C° 0 mm 7 m/s 767 mmHg 50%
    14:00 +12°C° 0 mm 7 m/s 767 mmHg 51%
    15:00 +12°C° 0 mm 7 m/s 768 mmHg 52%
    16:00 +11°C° 0 mm 6 m/s 768 mmHg 56%
    17:00 +10°C° 0 mm 5 m/s 768 mmHg 60%
    18:00 +10°C° 0 mm 4 m/s 769 mmHg 64%
    19:00 +8°C° 0 mm 4 m/s 769 mmHg 70%
    20:00 +7°C° 0 mm 3 m/s 769 mmHg 77%
    21:00 +6°C° 0 mm 2 m/s 770 mmHg 84%
    22:00 +6°C° 0 mm 2 m/s 770 mmHg 86%
    23:00 +5°C° 0 mm 2 m/s 770 mmHg 88%

    Pasado mañana, 4 Mayo, Miércoles

    hora temperatura Precipitaciones Viento Presión Humedad
    00:00 +5°C° 0 mm 2 m/s 771 mmHg 89%
    01:00 +4°C° 0 mm 2 m/s 771 mmHg 90%
    02:00 +5°C° 0 mm 1 m/s 771 mmHg 90%
    03:00 +5°C° 0 mm 1 m/s 771 mmHg 90%
    04:00 +6°C° 0 mm 1 m/s 771 mmHg 85%
    05:00 +6°C° 0 mm 2 m/s 772 mmHg 80%
    06:00 +8°C° 0 mm 2 m/s 772 mmHg 76%
    07:00 +9°C° 0 mm 2 m/s 772 mmHg 69%
    08:00 +12°C° 0 mm 2 m/s 772 mmHg 63%
    09:00 +13°C° 0 mm 2 m/s 773 mmHg 57%
    10:00 +14°C° 0 mm 2 m/s 773 mmHg 53%
    11:00 +15°C° 0 mm 2 m/s 773 mmHg 49%
    12:00 +16°C° 0 mm 2 m/s 773 mmHg 46%
    13:00 +16°C° 0 mm 1 m/s 772 mmHg 44%
    14:00 +16°C° 0 mm 1 m/s 772 mmHg 43%
    15:00 +18°C° 0 mm 1 m/s 772 mmHg 41%
    16:00 +16°C° 0 mm 1 m/s 772 mmHg 47%
    17:00 +15°C° 0 mm 1 m/s 772 mmHg 52%
    18:00 +15°C° 0 mm 1 m/s 772 mmHg 57%
    19:00 +13°C° 0 mm 2 m/s 772 mmHg 57%
    20:00 +12°C° 0 mm 2 m/s 772 mmHg 56%
    21:00 +9°C° 0 mm 3 m/s 772 mmHg 55%
    22:00 +9°C° 0 mm 3 m/s 772 mmHg 56%
    23:00 +8°C° 0 mm 3 m/s 772 mmHg 57%

    5 Mayo, Jueves

    hora temperatura Precipitaciones Viento Presión Humedad
    00:00 +8°C° 0 mm 3 m/s 772 mmHg 57%
    01:00 +7°C° 0 mm 3 m/s 772 mmHg 61%
    02:00 +7°C° 0 mm 3 m/s 772 mmHg 64%
    03:00 +6°C° 0 mm 4 m/s 772 mmHg 67%
    04:00 +6°C° 0 mm 4 m/s 772 mmHg 66%
    05:00 +7°C° 0 mm 4 m/s 772 mmHg 64%
    06:00 +8°C° 0 mm 4 m/s 771 mmHg 63%
    07:00 +11°C° 0 mm 4 m/s 771 mmHg 57%
    08:00 +13°C° 0 mm 5 m/s 771 mmHg 52%
    09:00 +15°C° 0 mm 5 m/s 771 mmHg 47%
    10:00 +16°C° 0 mm 5 m/s 771 mmHg 45%
    11:00 +16°C° 0 mm 6 m/s 770 mmHg 43%
    12:00 +17°C° 0 mm 6 m/s 770 mmHg 41%
    13:00 +17°C° 0 mm 6 m/s 769 mmHg 41%
    14:00 +19°C° 0 mm 6 m/s 769 mmHg 41%
    15:00 +19°C° 0 mm 6 m/s 768 mmHg 41%
    16:00 +17°C° 0 mm 6 m/s 768 mmHg 46%
    17:00 +16°C° 0 mm 5 m/s 767 mmHg 51%
    18:00 +15°C° 0 mm 5 m/s 767 mmHg 56%
    19:00 +14°C° 0 mm 5 m/s 767 mmHg 57%
    20:00 +13°C° 0 mm 6 m/s 767 mmHg 58%
    21:00 +11°C° 0 mm 6 m/s 767 mmHg 60%
    22:00 +10°C° 0 mm 6 m/s 767 mmHg 62%
    23:00 +10°C° 0 mm 6 m/s 767 mmHg 65%

    6 Mayo, Viernes

    hora temperatura Precipitaciones Viento Presión Humedad
    00:00 +9°C° 0 mm 5 m/s 766 mmHg 68%
    01:00 +9°C° 0 mm 5 m/s 766 mmHg 70%
    02:00 +8°C° 0 mm 5 m/s 766 mmHg 73%
    03:00 +8°C° 0 mm 5 m/s 765 mmHg 75%
    04:00 +9°C° 0 mm 6 m/s 765 mmHg 74%
    05:00 +10°C° 0 mm 6 m/s 765 mmHg 72%
    06:00 +10°C° 0 mm 6 m/s 764 mmHg 71%
    07:00 +13°C° 0 mm 6 m/s 764 mmHg 67%
    08:00 +15°C° 0 mm 6 m/s 764 mmHg 63%
    09:00 +18°C° 0 mm 7 m/s 764 mmHg 58%
    10:00 +20°C° 0 mm 7 m/s 763 mmHg 55%
    11:00 +21°C° 0 mm 7 m/s 763 mmHg 51%
    12:00 +22°C° 0 mm 7 m/s 762 mmHg 48%
    13:00 +23°C° 0 mm 7 m/s 762 mmHg 47%
    14:00 +23°C° 0 mm 7 m/s 762 mmHg 47%
    15:00 +23°C° 0 mm 7 m/s 761 mmHg 47%
    16:00 +22°C° 0 mm 6 m/s 761 mmHg 52%
    17:00 +21°C° 0 mm 5 m/s 761 mmHg 57%
    18:00 +21°C° 0 mm 4 m/s 761 mmHg 62%
    19:00 +19°C° 0 mm 5 m/s 761 mmHg 63%
    20:00 +17°C° 0 mm 5 m/s 761 mmHg 65%
    21:00 +15°C° 0 mm 6 m/s 761 mmHg 66%
    22:00 +15°C° 0 mm 6 m/s 761 mmHg 67%
    23:00 +14°C° 0 mm 6 m/s 761 mmHg 68%

    7 Mayo, Sábado

    hora temperatura Precipitaciones Viento Presión Humedad
    00:00 +13°C° 0 mm 5 m/s 761 mmHg 69%
    01:00 +13°C° 0 mm 5 m/s 761 mmHg 71%
    02:00 +12°C° 0 mm 5 m/s 760 mmHg 74%
    03:00 +11°C° 0 mm 4 m/s 760 mmHg 77%
    04:00 +12°C° 0 mm 5 m/s 760 mmHg 75%
    05:00 +13°C° 0 mm 5 m/s 760 mmHg 74%
    06:00 +14°C° 0 mm 5 m/s 760 mmHg 72%
    07:00 +16°C° 0 mm 6 m/s 760 mmHg 67%
    08:00 +19°C° 0 mm 6 m/s 760 mmHg 62%
    09:00 +21°C° 0 mm 6 m/s 760 mmHg 57%
    10:00 +22°C° 0 mm 7 m/s 760 mmHg 53%
    11:00 +23°C° 0 mm 7 m/s 759 mmHg 48%
    12:00 +24°C° 0 mm 7 m/s 759 mmHg 44%
    13:00 +24°C° 0 mm 7 m/s 759 mmHg 43%
    14:00 +24°C° 0 mm 7 m/s 758 mmHg 43%
    15:00 +26°C° 0 mm 7 m/s 758 mmHg 42%
    16:00 +24°C° 0 mm 7 m/s 758 mmHg 47%
    17:00 +23°C° 0 mm 7 m/s 758 mmHg 52%
    18:00 +21°C° 0 mm 6 m/s 758 mmHg 57%
    19:00 +20°C° 0 mm 7 m/s 758 mmHg 57%
    20:00 +18°C° 0 mm 7 m/s 758 mmHg 57%
    21:00 +17°C° 0 mm 8 m/s 758 mmHg 57%
    22:00 +17°C° 0 mm 7 m/s 758 mmHg 58%
    23:00 +16°C° 0 mm 7 m/s 758 mmHg 59%
    Mostrar más